Addis Ababa, Ethiopia

12:20 PM EAT on January 22, 2017 (GMT +0300)
Bole International

Weather History for HAAB - October, 2012

Change the Weather History Date:

Tuesday, October 16, 2012

  Actual Average Record
Temperature  
Mean Temperature 58 °F -  
Max Temperature 76 °F 67 °F 77 °F (2015)
Min Temperature 41 °F 53 °F 41 °F (2012)
Degree Days  
Heating Degree Days 6    
Growing Degree Days 8 (Base 50)    
Moisture  
Dew Point 46 °F    
Average Humidity 62    
Maximum Humidity 100    
Minimum Humidity 31    
Precipitation  
Precipitation 0.00 in - - ()
Sea Level Pressure  
Sea Level Pressure 30.28 in    
Wind  
Wind Speed 9 mph ()    
Max Wind Speed 23 mph    
Max Gust Speed -    
Visibility 8.9 miles    
Events      
Averages and records for this station are not official NWS values.
T = Trace of Precipitation, MM = Missing Value Source: Averaged Metar Reports

Daily Weather History Graph

Daily Weather History Graph

Search for Another Location

Airport or City:

Trip Planner

Search our weather history database for the weather conditions in past years. The results will help you decide how hot, cold, wet, or windy it might be!

Date:

Astronomy

Oct. 16, 2012 Rise Set
Actual Time 6:12 AM EAT 6:07 PM EAT
Civil Twilight 5:51 AM EAT 6:28 PM EAT
Nautical Twilight 5:26 AM EAT 6:53 PM EAT
Astronomical Twilight 5:02 AM EAT 7:17 PM EAT
Moon 6:51 AM EAT (10/16) 6:58 PM EAT (10/16)
Length of Visible Light 12h 37m
Length of Day
11h 55m
New Moon, 1% of the Moon is Illuminated
Oct 16
New Moon
Oct 22
First Quarter
Oct 29
Full
Nov 7
Last Quarter
Nov 14
New

Hourly Weather History & Observations

Time (EAT) Temp. Windchill Dew Point Humidity Pressure Visibility Wind Dir Wind Speed Gust Speed Precip Events Conditions
12:00 AM 55.4 °F - 42.8 °F 63% 30.36 in 6.2 mi NNE 13.8 mph - N/A   Partly Cloudy
1:00 AM 55.4 °F - 41.0 °F 58% 30.33 in - NNE 6.9 mph - N/A   Unknown
2:00 AM 53.6 °F - 42.8 °F 67% 30.33 in - NE 6.9 mph - N/A   Unknown
3:00 AM 53.6 °F - 44.6 °F 72% 30.33 in - ESE 2.3 mph - N/A   Unknown
4:00 AM 51.8 °F - 41.0 °F 67% 30.30 in - North - - N/A   Unknown
5:00 AM 50.0 °F - 42.8 °F 76% 30.33 in - North - - N/A   Unknown
6:00 AM 48.2 °F - 46.4 °F 93% 30.33 in - East 4.6 mph - N/A   Unknown
7:00 AM 46.4 °F 42.9 °F 41.0 °F 81% 30.33 in 6.2 mi Variable 6.9 mph - N/A   Partly Cloudy
8:00 AM 48.2 °F - 48.2 °F 100% 30.36 in - East 6.9 mph - N/A   Unknown
9:00 AM 61 °F - 42 °F 39% 29.96 in 19 mi ESE 8.9 mph - -   Scattered Clouds
9:00 AM 48.2 °F - 48.2 °F 100% 30.36 in - East 8.1 mph - N/A   Unknown
10:00 AM 64.4 °F - 44.6 °F 49% 30.39 in - ENE 13.8 mph - N/A   Unknown
11:00 AM 66.2 °F - 44.6 °F 46% 30.36 in - North - - N/A   Clear
12:00 PM 68.0 °F - 44.6 °F 43% 30.33 in - East 23.0 mph - N/A   Clear
1:00 PM 69.8 °F - 37.4 °F 31% 30.30 in - East 13.8 mph - N/A   Clear
2:00 PM 69.8 °F - 37.4 °F 31% 30.30 in - East 13.8 mph - N/A   Clear
3:00 PM 71 °F - 52 °F 41% 29.72 in 19 mi ESE 13.4 mph - -   Scattered Clouds
3:00 PM 69.8 °F - 37.4 °F 31% 30.24 in 6.2 mi ESE 13.8 mph - N/A   Partly Cloudy
4:00 PM 69.8 °F - 55.4 °F 60% 30.24 in 6.2 mi East 13.8 mph - N/A   Partly Cloudy
5:00 PM 68.0 °F - 57.2 °F 68% 30.24 in 6.2 mi ESE 20.7 mph - N/A   Partly Cloudy
6:00 PM 66.2 °F - 53.6 °F 64% 30.27 in 6.2 mi East 18.4 mph - N/A   Partly Cloudy
7:00 PM 62.6 °F - 53.6 °F 72% 30.30 in 6.2 mi East 9.2 mph - N/A   Partly Cloudy
8:00 PM 60.8 °F - 48.2 °F 63% 30.33 in 6.2 mi NE 6.9 mph - N/A   Partly Cloudy
9:00 PM 59 °F - 50 °F 63% 30.01 in 19 mi North 6.7 mph - -   Scattered Clouds
9:00 PM 59.0 °F - 50.0 °F 72% 30.36 in 6.2 mi NNE 6.9 mph - N/A   Partly Cloudy
10:00 PM 59.0 °F - 46.4 °F 63% 30.39 in 6.2 mi NNE 9.2 mph - N/A   Partly Cloudy
11:00 PM 59.0 °F - 46.4 °F 63% 30.39 in 6.2 mi NE 9.2 mph - N/A   Partly Cloudy